GW3823 Weather Reports


Display with metric or nautical units.
time (UTC)temp
F
wind
direction
speed
MPH
gust
MPH
rain 1hr
in
rain 24hr
in
rain mn
in
humidity
%
barometer
mb
20260901160804 59 142 3.0 7.0 0.00 0.19 0.05 76 1016.1
20260901160305 59 148 3.0 7.0 0.00 0.19 0.05 77 1016.2
20260901155804 57 150 5.0 8.0 0.00 0.19 0.05 80 1016.0
20260901155306 58 152 5.0 7.0 0.00 0.19 0.05 77 1016.1
20260901154804 58 198 2.0 7.0 0.00 0.19 0.05 77 1016.1
20260901154304 58 165 4.0 7.0 0.00 0.19 0.05 76 1016.0
20260901153805 57 59 1.0 2.0 0.00 0.19 0.05 75 1016.0
20260901153304 57 129 1.0 6.0 0.00 0.19 0.05 75 1016.1
20260901152805 56 352 3.0 8.0 0.00 0.19 0.05 78 1016.1
20260901152306 57 5 3.0 8.0 0.00 0.19 0.05 77 1016.0
20260901151804 56 55 5.0 7.0 0.00 0.19 0.05 80 1016.2
20260901151304 54 223 1.0 6.0 0.00 0.19 0.05 83 1016.1
20260901150304 53 42 2.0 8.0 0.00 0.19 0.05 85 1016.3
20260901145805 52 56 5.0 8.0 0.00 0.19 0.05 86 1016.1
20260901145306 52 31 3.0 7.0 0.00 0.19 0.05 89 1016.2
20260901144805 51 43 6.0 7.0 0.00 0.19 0.05 89 1016.4
20260901144304 51 43 6.0 7.0 0.00 0.19 0.05 90 1016.4
20260901143304 51 46 3.0 6.0 0.00 0.19 0.05 92 1016.3
20260901142804 50 19 4.0 6.0 0.00 0.19 0.05 94 1016.5
20260901142306 49 24 2.0 3.0 0.00 0.19 0.05 94 1026.9
20260901141805 50 146 1.0 5.0 0.00 0.19 0.05 94 1016.6
20260901141304 49 143 4.0 6.0 0.00 0.19 0.05 94 1022.0
20260901140804 49 124 3.0 5.0 0.00 0.19 0.05 94 1016.6
20260901140304 49 180 2.0 3.0 0.00 0.19 0.05 94 1021.4
20260901135805 48 167 3.0 3.0 0.00 0.19 0.05 94 1016.6
20260901135305 48 54 3.0 3.0 0.00 0.19 0.05 93 1021.1
20260901134304 48 54 3.0 3.0 0.00 0.19 0.05 93 1016.7
20260901133804 49 54 3.0 5.0 0.00 0.19 0.05 93 1016.7
20260901133304 54 55 5.0 5.0 0.00 0.19 0.05 96 1016.4
20260901132307 54 55 5.0 5.0 0.00 0.19 0.05 96 1026.8
20260901131804 54 55 5.0 5.0 0.00 0.19 0.05 96 1020.8
20260901131304 54 55 5.0 5.0 0.00 0.19 0.05 96 1016.4
20260901130804 54 55 5.0 5.0 0.00 0.19 0.05 96 1019.2
20260901130304 54 55 5.0 5.0 0.00 0.19 0.05 96 1016.1
20260901125804 55 55 5.0 5.0 0.00 0.19 0.05 93 1024.2
20260901124805 55 55 5.0 5.0 0.00 0.19 0.05 93 1026.1
20260901124305 55 55 5.0 5.0 0.00 0.19 0.05 93 1015.9
20260901123805 55 55 5.0 5.0 0.00 0.19 0.05 93 1025.2
20260901123305 55 55 5.0 5.0 0.00 0.19 0.05 93 1015.9
20260901122804 55 55 5.0 5.0 0.00 0.19 0.05 93 1015.9
20260901122306 55 55 5.0 5.0 0.00 0.19 0.05 93 1015.7
20260901121804 55 55 5.0 5.0 0.00 0.19 0.05 93 1022.1
20260901121304 55 55 5.0 5.0 0.00 0.19 0.05 93 1015.9
20260901120804 55 55 5.0 5.0 0.00 0.19 0.05 93 1015.7
20260901120304 55 55 5.0 5.0 0.00 0.19 0.05 93 1015.7
20260901115804 55 55 5.0 5.0 0.00 0.19 0.05 96 1015.7
20260901115306 55 55 5.0 5.0 0.00 0.19 0.05 96 1015.6
20260901114804 55 55 5.0 5.0 0.00 0.19 0.05 96 1015.6
20260901114304 55 55 5.0 5.0 0.00 0.19 0.05 96 1015.6
20260901113804 55 55 5.0 5.0 0.00 0.19 0.05 96 1015.4
20260901113303 55 55 5.0 5.0 0.00 0.19 0.05 96 1021.4
20260901112804 55 55 5.0 5.0 0.00 0.19 0.05 96 1015.2
20260901112306 55 55 5.0 5.0 0.00 0.19 0.05 96 1015.1
20260901111804 55 55 5.0 5.0 0.00 0.19 0.05 96 1015.3
20260901110804 55 55 5.0 5.0 0.00 0.19 0.05 96 1020.5
20260901110304 55 55 5.0 5.0 0.00 0.19 0.05 96 1015.2
20260901105804 55 55 5.0 5.0 0.00 0.19 0.05 96 1015.4
20260901104804 55 55 5.0 5.0 0.00 0.19 0.05 96 1020.5
20260901103804 55 55 5.0 5.0 0.00 0.19 0.05 96 1020.1
20260901103304 55 55 5.0 5.0 0.00 0.19 0.05 96 1015.2
20260901102804 55 55 5.0 5.0 0.00 0.19 0.05 96 1015.2
20260901101804 55 55 5.0 5.0 0.00 0.19 0.05 96 1015.2
20260901101305 55 55 5.0 5.0 0.00 0.19 0.05 96 1015.2
20260901100804 55 55 5.0 5.0 0.00 0.19 0.05 96 1015.4
20260901095804 55 55 5.0 5.0 0.00 0.19 0.05 93 1015.2
20260901095306 55 55 5.0 5.0 0.00 0.19 0.05 93 1020.0
20260901094804 55 55 5.0 5.0 0.00 0.19 0.05 93 1015.1
20260901094304 55 55 5.0 5.0 0.00 0.19 0.05 93 1015.3
20260901093305 55 55 5.0 5.0 0.00 0.19 0.05 93 1015.3
20260901092804 55 55 5.0 5.0 0.00 0.19 0.05 93 1015.1
20260901092305 55 55 5.0 5.0 0.00 0.19 0.05 93 1015.2
20260901091804 55 55 5.0 5.0 0.00 0.19 0.05 96 1015.4
20260901091304 55 55 5.0 5.0 0.00 0.19 0.05 96 1015.3
20260901090804 55 55 5.0 5.0 0.00 0.19 0.05 96 1015.4
20260901090303 55 55 5.0 5.0 0.00 0.19 0.05 96 1015.5
20260901085804 56 55 5.0 5.0 0.00 0.19 0.05 93 1015.5
20260901085306 56 55 5.0 5.0 0.00 0.19 0.05 93 1015.6
20260901084304 56 55 5.0 5.0 0.00 0.19 0.05 93 1015.7
20260901083804 56 55 5.0 5.0 0.00 0.19 0.05 93 1015.5
20260901083304 56 55 5.0 5.0 0.00 0.19 0.05 93 1015.5
20260901082804 56 55 5.0 5.0 0.00 0.19 0.05 93 1019.7
20260901081804 56 55 5.0 5.0 0.00 0.19 0.05 93 1026.1
20260901081306 56 55 5.0 5.0 0.00 0.19 0.05 93 1015.7
20260901080805 56 55 5.0 5.0 0.00 0.19 0.05 93 1015.6
20260901080305 56 55 5.0 5.0 0.00 0.19 0.05 93 1015.7
20260901075806 57 55 5.0 5.0 0.00 0.19 0.05 96 1015.5
20260901075307 57 55 5.0 5.0 0.00 0.19 0.05 96 1015.6
20260901074805 57 55 5.0 5.0 0.00 0.19 0.05 96 1015.6
20260901074305 57 55 5.0 5.0 0.00 0.19 0.05 96 1015.8
20260901073805 57 55 5.0 5.0 0.00 0.19 0.05 96 1015.8
20260901073305 57 55 5.0 5.0 0.00 0.19 0.05 96 1015.9
20260901072806 57 55 5.0 5.0 0.00 0.19 0.05 96 1015.9
20260901072309 57 55 5.0 5.0 0.00 0.19 0.05 96 1016.0
20260901071805 57 55 5.0 5.0 0.00 0.19 0.05 96 1016.0
20260901071305 57 55 5.0 5.0 0.00 0.19 0.05 96 1025.4
20260901070805 57 55 5.0 5.0 0.00 0.19 0.05 96 1016.1
20260901070306 57 55 5.0 5.0 0.00 0.19 0.05 96 1020.8
20260901065805 57 55 5.0 5.0 0.03 0.19 0.05 93 1016.0
20260901065306 57 55 5.0 5.0 0.03 0.19 0.05 93 1021.2
20260901064805 57 55 5.0 5.0 0.03 0.19 0.05 93 1016.1
20260901064306 57 55 5.0 5.0 0.03 0.19 0.05 93 1020.7
20260901063305 57 55 5.0 5.0 0.03 0.19 0.05 93 1021.0
20260901062805 57 55 5.0 5.0 0.03 0.19 0.05 93 1015.6
20260901062309 52 55 5.0 5.0 0.03 0.19 0.05 93 1015.8
20260901061805 53 55 5.0 5.0 0.03 0.19 0.05 94 1015.9
20260901061305 52 55 5.0 5.0 0.03 0.19 0.05 94 1015.8
20260901060806 53 55 5.0 5.0 0.03 0.19 0.05 94 1015.9
20260901060306 52 55 5.0 5.0 0.04 0.19 0.05 94 1015.9
20260901055805 52 55 5.0 5.0 0.03 0.16 0.02 94 1025.7
20260901055306 52 55 5.0 5.0 0.03 0.16 0.02 94 1015.9
20260901054805 52 55 5.0 5.0 0.04 0.16 0.02 94 1015.8
20260901053805 52 55 5.0 5.0 0.04 0.18 0.02 94 1016.0
20260901053305 52 55 5.0 5.0 0.04 0.18 0.02 94 1016.0
20260901052805 52 55 5.0 5.0 0.04 0.18 0.02 94 1016.2
20260901052307 52 55 3.0 5.0 0.04 0.18 0.02 94 1016.1
20260901051805 52 83 2.0 2.0 0.04 0.18 0.02 94 1016.0
20260901051305 52 83 2.0 2.0 0.04 0.18 0.02 94 1016.2
20260901050306 52 83 2.0 2.0 0.03 0.17 0.01 94 1016.0
20260901045805 54 83 2.0 2.0 0.03 0.16 0.16 93 1026.4
20260901045306 57 83 2.0 2.0 0.02 0.15 0.15 91 1026.4
20260901044305 59 83 2.0 2.0 0.01 0.14 0.14 89 1026.4
20260901043805 56 83 2.0 2.0 0.01 0.14 0.14 92 1016.2
20260901043305 53 183 1.0 1.0 0.01 0.14 0.14 93 1026.4
20260901042805 54 183 1.0 1.0 0.01 0.14 0.14 93 1016.1
20260901042306 53 183 1.0 1.0 0.01 0.14 0.14 94 1016.0
20260901041805 54 183 1.0 1.0 0.01 0.14 0.14 93 1016.0
20260901041305 53 183 1.0 5.0 0.01 0.14 0.14 94 1015.9
20260901040805 59 51 3.0 5.0 0.01 0.14 0.14 89 1021.2
20260901040305 59 51 3.0 5.0 0.01 0.14 0.14 87 1015.5
20260901035805 61 51 3.0 5.0 0.00 0.21 0.13 77 1024.4
20260901035306 61 51 3.0 5.0 0.00 0.21 0.13 77 1015.5
20260901034805 61 51 3.0 5.0 0.00 0.21 0.13 77 1020.1
20260901033805 61 51 3.0 5.0 0.00 0.21 0.13 77 1015.4
20260901033305 53 51 3.0 5.0 0.00 0.21 0.13 92 1015.3
20260901032805 54 51 3.0 5.0 0.00 0.21 0.13 92 1015.1
20260901032306 53 51 3.0 5.0 0.00 0.21 0.13 92 1015.4
20260901030805 54 51 3.0 5.0 0.00 0.27 0.13 92 1015.5
20260901030305 55 51 3.0 5.0 0.00 0.29 0.13 83 1015.3
20260901025306 55 51 3.0 5.0 0.00 0.31 0.13 92 1025.6
20260901024805 54 51 3.0 5.0 0.00 0.31 0.13 92 1015.5
20260901023805 54 51 3.0 5.0 0.00 0.31 0.13 72 1015.5
20260901023305 55 26 3.0 3.0 0.01 0.31 0.13 92 1015.3
20260901022306 55 26 3.0 3.0 0.02 0.31 0.13 92 1015.6
20260901021804 54 26 3.0 3.0 0.04 0.31 0.13 82 1015.6
20260901021305 55 26 3.0 3.0 0.05 0.31 0.13 92 1015.7
20260901020806 56 104 1.0 2.0 0.06 0.31 0.13 86 1015.6
20260901020305 57 104 1.0 2.0 0.06 0.31 0.13 86 1015.7
20260901015805 56 104 1.0 2.0 0.06 0.32 0.13 86 1015.9
20260901015306 57 104 1.0 2.0 0.06 0.32 0.13 86 1015.9
20260901014805 56 104 1.0 2.0 0.06 0.32 0.13 86 1020.5
20260901014304 57 104 1.0 2.0 0.06 0.32 0.13 72 1016.0
20260901013805 57 104 1.0 2.0 0.06 0.32 0.13 86 1016.2
20260901013305 57 104 1.0 2.0 0.05 0.31 0.12 72 1015.8
20260901012804 57 104 1.0 2.0 0.05 0.31 0.12 86 1016.5
20260901012306 57 104 1.0 2.0 0.04 0.30 0.11 86 1024.7
20260901011806 56 104 1.0 3.0 0.02 0.28 0.09 86 1016.5
20260901010805 57 172 1.0 1.0 0.00 0.26 0.07 80 1016.5
20260901010305 58 172 1.0 1.0 0.00 0.26 0.07 80 1024.5
20260901005805 57 172 1.0 1.0 0.01 0.26 0.07 80 1016.2
20260901005307 58 172 1.0 5.0 0.01 0.26 0.07 80 1025.6
20260901004305 58 167 2.0 6.0 0.01 0.26 0.07 82 1021.0
20260901003805 57 159 5.0 7.0 0.01 0.26 0.07 81 1016.1
20260901003305 58 141 4.0 6.0 0.01 0.26 0.07 81 1016.0
20260901002804 57 172 2.0 6.0 0.01 0.26 0.07 81 1016.1
20260901002306 58 180 2.0 3.0 0.01 0.26 0.07 77 1016.2
20260901001804 58 141 2.0 3.0 0.01 0.26 0.07 73 1016.1
20260901001305 58 123 1.0 3.0 0.01 0.26 0.07 77 1016.1
20260901000806 57 85 2.0 3.0 0.01 0.26 0.07 78 1019.6
20260901000304 58 23 1.0 5.0 0.02 0.26 0.07 77 1016.0
20260831235805 57 64 3.0 5.0 0.03 0.25 0.06 76 1020.0
20260831235306 58 34 3.0 5.0 0.03 0.25 0.06 77 1015.9
20260831234805 58 213 2.0 5.0 0.03 0.25 0.06 76 1020.0
20260831233804 58 319 3.0 5.0 0.03 0.25 0.06 81 1020.0
20260831233305 58 303 2.0 6.0 0.03 0.25 0.06 80 1015.8
20260831232805 58 12 3.0 6.0 0.03 0.25 0.06 80 1025.4
20260831232306 57 43 5.0 14.0 0.03 0.25 0.06 80 1016.1
20260831231805 60 141 10.0 14.0 0.03 0.25 0.06 63 1016.5
20260831231305 60 141 10.0 14.0 0.03 0.25 0.06 73 1016.6
20260831230305 60 141 10.0 14.0 0.02 0.24 0.05 67 1016.8
20260831225804 61 141 10.0 14.0 0.01 0.22 0.03 63 1025.1
20260831225306 60 141 10.0 14.0 0.01 0.22 0.03 63 1016.7
20260831224804 61 141 10.0 14.0 0.01 0.22 0.03 63 1024.4
20260831224305 60 141 10.0 14.0 0.01 0.22 0.03 63 1016.1
20260831223805 60 141 10.0 14.0 0.01 0.22 0.03 63 1016.2
20260831223305 60 141 10.0 14.0 0.01 0.22 0.03 63 1016.2
20260831222306 61 170 9.0 21.0 0.01 0.22 0.03 61 1015.7
20260831221804 62 150 12.0 16.0 0.01 0.22 0.03 59 1019.6
20260831221305 63 150 12.0 16.0 0.01 0.22 0.03 59 1015.6
20260831220804 63 176 6.0 16.0 0.01 0.22 0.03 57 1019.6
20260831220305 63 148 4.0 15.0 0.01 0.22 0.03 57 1015.7
20260831215805 63 141 4.0 14.0 0.00 0.21 0.02 55 1015.6
20260831215306 63 141 6.0 17.0 0.00 0.21 0.02 57 1015.7
20260831214805 63 175 12.0 22.0 0.00 0.21 0.02 55 1015.4
20260831214305 64 150 9.0 22.0 0.00 0.21 0.02 54 1015.5
20260831213805 64 159 7.0 20.0 0.00 0.21 0.02 55 1015.5
20260831213304 64 148 8.0 20.0 0.00 0.21 0.02 53 1024.1
20260831212805 64 154 5.0 12.0 0.00 0.21 0.02 55 1015.2
20260831212306 65 220 6.0 15.0 0.00 0.21 0.02 56 1015.3
20260831211804 67 181 5.0 15.0 0.00 0.21 0.02 52 1015.3
20260831210804 67 181 5.0 15.0 0.00 0.21 0.02 52 1015.3
20260831205804 67 165 3.0 12.0 0.00 0.27 0.02 52 1015.2
20260831204805 67 165 3.0 8.0 0.00 0.28 0.02 47 1015.2
20260831203805 68 146 7.0 10.0 0.00 0.32 0.02 47 1015.2
20260831203304 67 181 3.0 9.0 0.00 0.33 0.02 51 1015.1
20260831202805 67 140 4.0 13.0 0.00 0.34 0.02 51 1025.5
20260831201804 68 133 3.0 15.0 0.00 0.37 0.02 49 1015.5
20260831201305 68 207 6.0 13.0 0.00 0.39 0.02 48 1015.3
20260831200805 68 144 4.0 16.0 0.00 0.41 0.02 49 1015.4
20260831200305 68 165 6.0 14.0 0.00 0.43 0.02 50 1015.6
20260831195804 66 149 4.0 17.0 0.00 0.50 0.02 50 1015.6
20260831195306 67 158 5.0 15.0 0.00 0.52 0.02 50 1015.7
20260831194804 66 166 7.0 18.0 0.00 0.52 0.02 49 1015.8
20260831194305 68 162 9.0 17.0 0.00 0.52 0.02 48 1015.7
20260831193804 68 169 7.0 13.0 0.00 0.52 0.02 47 1015.7
20260831193304 69 148 5.0 13.0 0.00 0.52 0.02 66 1026.7
20260831192805 68 170 5.0 12.0 0.00 0.52 0.02 48 1015.5
20260831192305 68 189 2.0 12.0 0.00 0.52 0.02 66 1027.0
20260831191805 66 167 6.0 13.0 0.00 0.52 0.02 50 1015.8
20260831191304 66 150 7.0 13.0 0.00 0.54 0.02 52 1015.9
20260831190804 66 187 5.0 14.0 0.00 0.55 0.02 53 1016.2
20260831185805 67 167 7.0 16.0 0.00 0.82 0.02 70 1026.7
20260831185306 68 153 7.0 17.0 0.00 0.84 0.02 49 1016.0
20260831184804 68 162 6.0 20.0 0.00 1.10 0.02 67 1025.7
20260831184305 69 166 6.0 14.0 0.00 1.10 0.02 47 1016.0
20260831183805 67 195 5.0 16.0 0.00 1.10 0.02 74 1028.6
20260831182804 71 158 4.0 13.0 0.00 1.10 0.02 71 1027.3
20260831182307 69 198 2.0 13.0 0.00 1.10 0.02 47 1016.2
20260831180805 67 148 6.0 12.0 0.00 1.10 0.02 74 1028.8
20260831180305 69 170 5.0 12.0 0.00 1.10 0.02 46 1016.5
20260831175306 68 190 2.0 7.0 0.00 1.10 0.02 46 1016.5
20260831174804 67 173 3.0 7.0 0.00 1.13 0.02 47 1016.4
20260831174305 69 146 4.0 7.0 0.00 1.13 0.02 58 1021.6
20260831173806 67 190 3.0 6.0 0.00 1.13 0.02 48 1016.7
20260831173305 68 94 2.0 7.0 0.00 1.13 0.02 64 1022.2
20260831172306 67 154 3.0 7.0 0.00 1.13 0.02 57 1017.0
20260831171804 64 151 1.0 9.0 0.00 1.13 0.02 59 1016.8
20260831171304 64 159 4.0 9.0 0.00 1.13 0.02 62 1016.5
20260831165804 63 177 2.0 8.0 0.00 1.13 0.02 76 1017.0
20260831165305 61 184 3.0 9.0 0.00 1.13 0.02 66 1017.0
20260831164304 60 172 2.0 5.0 0.00 1.13 0.02 69 1017.1
20260831163805 59 181 1.0 6.0 0.00 1.13 0.02 72 1021.2
20260831163305 58 167 3.0 5.0 0.00 1.13 0.02 72 1016.9
20260831162804 59 186 2.0 6.0 0.00 1.13 0.02 74 1028.2
20260831162306 59 124 2.0 6.0 0.00 1.13 0.02 72 1017.3
20260831161304 58 188 3.0 5.0 0.00 1.13 0.02 72 1016.9